Central Point, OR

9:19 AM PST on February 20, 2017 (GMT -0800)
Rogue Valley International-Medford

Weather History for KMFR - January, 2014

Change the Weather History Date:

Friday, January 24, 2014

  Actual Average Record
Temperature  
Mean Temperature 53 °F 41 °F  
Max Temperature 70 °F 49 °F 70 °F (2014)
Min Temperature 36 °F 33 °F 5 °F (1949)
Degree Days  
Heating Degree Days 12 24  
Month to date heating degree days 615 603  
Since 1 July heating degree days 2706 2369  
Cooling Degree Days 0 0  
Month to date cooling degree days 0 0  
Year to date cooling degree days 0 0  
Growing Degree Days 4 (Base 50)    
Moisture  
Dew Point 24 °F    
Average Humidity 41    
Maximum Humidity 64    
Minimum Humidity 17    
Precipitation  
Precipitation 0.00 in 0.07 in 0.93 in (1933)
Month to date precipitation 0.53 1.98  
Year to date precipitation 0.53 1.98  
Snow  
Snow 0.00 in 0.00 in - ()
Month to date snowfall T 1.0  
Since 1 July snowfall 3.4 2.7  
Snow Depth 0.00 in    
Sea Level Pressure  
Sea Level Pressure 30.22 in    
Wind  
Wind Speed 8 mph (SE)    
Max Wind Speed 26 mph    
Max Gust Speed 31 mph    
Visibility 10 miles    
Events      
T = Trace of Precipitation, MM = Missing Value Source: NWS Daily Summary

Daily Weather History Graph

Daily Weather History Graph

Search for Another Location

Airport or City:

Trip Planner

Search our weather history database for the weather conditions in past years. The results will help you decide how hot, cold, wet, or windy it might be!

Date:

Astronomy

Jan. 24, 2014 Rise Set
Actual Time 7:32 AM PST 5:15 PM PST
Civil Twilight 7:01 AM PST 5:45 PM PST
Nautical Twilight 6:27 AM PST 6:19 PM PST
Astronomical Twilight 5:54 AM PST 6:53 PM PST
Moon 1:03 AM PST (1/24) 11:38 AM PST (1/24)
Length of Visible Light 10h 43m
Length of Day
9h 43m
Last Quarter, 43% of the Moon is Illuminated
Jan 24
Last Quarter
Jan 30
New
Feb 6
First Quarter
Feb 14
Full
Feb 22
Last Quarter

Hourly Weather History & Observations

Time (PST) Temp. Windchill Dew Point Humidity Pressure Visibility Wind Dir Wind Speed Gust Speed Precip Events Conditions
12:53 AM 55.0 °F - 24.1 °F 30% 30.22 in 10.0 mi SSE 10.4 mph - N/A   Clear
1:53 AM 46.0 °F - 24.1 °F 42% 30.22 in 10.0 mi Calm Calm - N/A   Clear
2:53 AM 54.0 °F - 21.0 °F 28% 30.20 in 10.0 mi Variable 3.5 mph - N/A   Clear
3:53 AM 51.1 °F - 21.9 °F 32% 30.20 in 10.0 mi West 6.9 mph - N/A   Clear
4:53 AM 48.0 °F - 21.9 °F 36% 30.20 in 10.0 mi Calm Calm - N/A   Clear
5:53 AM 48.9 °F - 21.9 °F 35% 30.21 in 10.0 mi East 8.1 mph - N/A   Clear
6:53 AM 51.1 °F - 21.0 °F 31% 30.22 in 10.0 mi ENE 6.9 mph - N/A   Clear
7:53 AM 52.0 °F - 21.9 °F 31% 30.23 in 10.0 mi East 10.4 mph - N/A   Clear
8:53 AM 57.0 °F - 21.9 °F 26% 30.25 in 10.0 mi East 11.5 mph 26.5 mph N/A   Clear
9:53 AM 57.9 °F - 24.1 °F 27% 30.26 in 10.0 mi NNW 3.5 mph - N/A   Clear
10:53 AM 63.0 °F - 23.0 °F 22% 30.26 in 10.0 mi SSE 11.5 mph 18.4 mph N/A   Clear
11:53 AM 64.9 °F - 23.0 °F 20% 30.23 in 10.0 mi SE 20.7 mph - N/A   Clear
12:53 PM 68.0 °F - 24.1 °F 19% 30.21 in 10.0 mi ESE 16.1 mph 24.2 mph N/A   Clear
1:53 PM 68.0 °F - 21.9 °F 17% 30.19 in 10.0 mi SSE 16.1 mph - N/A   Clear
2:53 PM 70.0 °F - 24.1 °F 18% 30.18 in 10.0 mi SE 15.0 mph 23.0 mph N/A   Clear
3:53 PM 69.1 °F - 24.1 °F 18% 30.17 in 10.0 mi SSE 10.4 mph - N/A   Clear
4:53 PM 64.9 °F - 25.0 °F 22% 30.18 in 10.0 mi ENE 8.1 mph - N/A   Clear
5:53 PM 59.0 °F - 25.0 °F 27% 30.20 in 10.0 mi South 3.5 mph - N/A   Partly Cloudy
6:53 PM 54.0 °F - 27.0 °F 35% 30.22 in 10.0 mi West 5.8 mph - N/A   Partly Cloudy
7:53 PM 52.0 °F - 27.0 °F 38% 30.24 in 10.0 mi West 3.5 mph - N/A   Clear
8:53 PM 46.9 °F - 28.9 °F 50% 30.25 in 10.0 mi Variable 3.5 mph - N/A   Clear
9:53 PM 39.9 °F 37.8 °F 28.9 °F 65% 30.27 in 10.0 mi SSE 3.5 mph - N/A   Clear
10:53 PM 45.0 °F 43.5 °F 28.0 °F 52% 30.27 in 10.0 mi East 3.5 mph - N/A   Clear
11:53 PM 37.0 °F - 28.0 °F 70% 30.29 in 10.0 mi Calm Calm - N/A   Clear